OE1HTB-13 Weather Reports


Display with metric or nautical units.
time (UTC)temp
F
wind
direction
speed
MPH
gust
MPH
rain 1hr
in
rain 24hr
in
rain mn
in
humidity
%
barometer
mb
20260506123112 73 96 5.0 15.0 0.00 0.00 0.00 45 1004.4
20260506121612 72 103 7.0 21.0 0.00 0.00 0.00 46 1004.6
20260506120111 73 155 7.0 18.0 0.00 0.00 0.00 45 1004.7
20260506114611 73 116 6.0 17.0 0.00 0.00 0.00 46 1004.8
20260506113111 76 140 7.0 17.0 0.00 0.00 0.00 45 1005.1
20260506111611 75 82 8.0 22.0 0.00 0.00 0.00 49 1005.2
20260506110111 75 148 7.0 21.0 0.00 0.00 0.00 45 1005.4
20260506104611 75 146 8.0 22.0 0.00 0.00 0.00 44 1005.9
20260506103110 75 94 8.0 17.0 0.00 0.00 0.00 47 1005.9
20260506101611 73 121 7.0 15.0 0.00 0.00 0.00 47 1006.0
20260506100110 75 94 6.0 16.0 0.00 0.00 0.00 47 1006.1
20260506094610 75 120 6.0 17.0 0.00 0.00 0.00 45 1006.2
20260506093110 74 101 6.0 15.0 0.00 0.00 0.00 46 1006.4
20260506091610 71 88 7.0 14.0 0.00 0.00 0.00 52 1006.6
20260506090110 73 89 6.0 13.0 0.00 0.00 0.00 50 1006.5
20260506084616 74 126 5.0 13.0 0.00 0.00 0.00 48 1006.5
20260506083114 73 57 4.0 10.0 0.00 0.00 0.00 46 1006.6
20260506081616 73 107 4.0 9.0 0.00 0.00 0.00 47 1006.8
20260506080115 72 92 3.0 8.0 0.00 0.00 0.00 50 1006.8
20260506073114 70 110 2.0 8.0 0.00 0.00 0.00 52 1006.9
20260506071615 70 71 2.0 6.0 0.00 0.00 0.00 52 1007.0
20260506070114 68 184 2.0 5.0 0.00 0.00 0.00 56 1007.1
20260506061613 63 129 1.0 6.0 0.00 0.00 0.00 65 1007.2
20260506060113 62 78 1.0 3.0 0.00 0.00 0.00 67 1007.2
20260506050114 60 77 1.0 5.0 0.00 0.00 0.00 73 1007.3
20260506044612 58 63 1.0 4.0 0.00 0.00 0.00 74 1007.1
20260506043113 58 33 1.0 3.0 0.00 0.00 0.00 77 1007.0
20260506041612 57 85 1.0 4.0 0.00 0.00 0.00 77 1007.0
20260506040112 57 30 2.0 7.0 0.00 0.00 0.00 77 1006.8
20260506034611 57 288 2.0 6.0 0.00 0.00 0.00 78 1006.7
20260506033113 57 313 1.0 5.0 0.00 0.00 0.00 78 1006.7
20260506031611 57 330 1.0 4.0 0.00 0.00 0.00 77 1006.7
20260506030111 58 14 1.0 5.0 0.00 0.00 0.00 77 1006.9
20260506024611 58 53 1.0 5.0 0.00 0.00 0.00 76 1006.8
20260506023112 58 280 2.0 5.0 0.00 0.00 0.00 76 1006.7
20260506021611 59 211 1.0 3.0 0.00 0.00 0.00 75 1006.6
20260506020111 59 148 1.0 4.0 0.00 0.00 0.00 75 1006.5
20260506014610 60 22 1.0 3.0 0.00 0.00 0.00 74 1006.4
20260506013110 60 86 1.0 4.0 0.00 0.00 0.00 73 1006.3
20260506011610 60 179 1.0 5.0 0.00 0.00 0.00 71 1006.1
20260506010110 61 71 1.0 6.0 0.00 0.00 0.00 70 1006.0
20260506004610 61 113 1.0 4.0 0.00 0.00 0.00 69 1005.9
20260506003111 61 57 1.0 4.0 0.00 0.00 0.00 68 1005.7
20260506001610 61 96 1.0 3.0 0.00 0.00 0.00 67 1005.5
20260506000109 62 287 1.0 3.0 0.00 0.00 0.00 66 1005.4
20260505234609 62 67 1.0 4.0 0.00 0.00 0.00 67 1005.1
20260505233109 62 130 1.0 4.0 0.00 0.00 0.00 66 1005.1
20260505231615 61 42 1.0 5.0 0.00 0.00 0.00 68 1005.0
20260505230114 60 57 1.0 4.0 0.00 0.00 0.00 70 1004.7
20260505224614 59 244 1.0 4.0 0.00 0.00 0.00 70 1004.6
20260505223114 58 151 1.0 3.0 0.00 0.00 0.00 71 1004.4
20260505221614 58 101 1.0 4.0 0.00 0.00 0.00 70 1004.2
20260505220113 58 5 2.0 4.0 0.00 0.00 0.00 68 1004.2
20260505214613 58 308 1.0 3.0 0.00 0.00 0.00 68 1004.2
20260505213113 58 311 1.0 2.0 0.00 0.00 0.00 67 1004.1
20260505211613 58 297 1.0 2.0 0.00 0.00 0.00 66 1003.9
20260505210113 59 294 0.0 2.0 0.00 0.00 0.00 65 1004.0
20260505204613 60 157 0.0 3.0 0.00 0.00 0.00 63 1003.7
20260505203112 61 122 1.0 4.0 0.00 0.00 0.00 61 1003.5
20260505201613 61 75 2.0 5.0 0.00 0.00 0.00 59 1003.3
20260505200112 62 102 2.0 6.0 0.00 0.00 0.00 58 1003.4
20260505194612 62 106 2.0 8.0 0.00 0.00 0.00 57 1003.3
20260505193112 63 136 3.0 9.0 0.00 0.00 0.00 56 1003.2
20260505191613 64 94 3.0 8.0 0.00 0.00 0.00 55 1003.2
20260505190112 64 130 4.0 13.0 0.00 0.00 0.00 53 1003.2
20260505184612 64 64 4.0 11.0 0.00 0.00 0.00 53 1003.1
20260505183111 65 133 5.0 11.0 0.00 0.00 0.00 52 1003.1
20260505181611 66 120 5.0 15.0 0.00 0.00 0.00 50 1003.1
20260505180111 67 153 5.0 14.0 0.00 0.00 0.00 48 1003.1
20260505174611 68 151 6.0 17.0 0.00 0.00 0.00 47 1003.0
20260505173111 69 148 5.0 15.0 0.00 0.00 0.00 46 1002.9
20260505171611 70 166 7.0 19.0 0.00 0.00 0.00 46 1002.8
20260505170111 70 100 6.0 16.0 0.00 0.00 0.00 46 1002.9
20260505164611 71 125 6.0 19.0 0.00 0.00 0.00 44 1003.1
20260505163110 71 122 7.0 18.0 0.00 0.00 0.00 44 1003.4
20260505161610 72 132 7.0 20.0 0.00 0.00 0.00 43 1003.5
20260505160110 73 126 7.0 16.0 0.00 0.00 0.00 43 1003.5
20260505153117 74 163 8.0 27.0 0.00 0.00 0.00 41 1003.5
20260505151615 75 132 7.0 21.0 0.00 0.00 0.00 38 1003.5
20260505150114 78 131 8.0 20.0 0.00 0.00 0.00 35 1003.6
20260505140114 80 125 8.0 15.0 0.00 0.00 0.00 32 1003.8
20260505130113 81 127 9.0 25.0 0.00 0.00 0.00 28 1004.4
20260505124613 81 117 7.0 23.0 0.00 0.00 0.00 29 1004.6